Skip Page Navigation
NASA JPL Caltech
NASA Logo - Jet Propulsion Laboratory + View the NASA Portal
+ Center for Near-Earth Object Studies
JPL Home Earth Solar System Stars & Galaxies Technology
JPL Solar System Dynamics
BODIES ORBITS EPHEMERIDES TOOLS PHYSICAL DATA DISCOVERY FAQ SITE MAP
IMPORTANT: The SSD Announcement email list is now available. Major changes are coming in the near future, including possible hostname and/or URL changes. To be notified of such changes, subscribe to this email list.

Please visit this page for more details.


JPL Small-Body Database Browser
Search: [ help ]  
47639 (2000 CT29)
Classification: Main-belt Asteroid          SPK-ID: 2047639
Ephemeris | Orbit Diagram | Orbital Elements | Mission Design | Physical Parameters | Discovery Circumstances | Close-Approach Data ]

[ show orbit diagram ]
Orbital Elements at Epoch 2458600.5 (2019-Apr-27.0) TDB
Reference: JPL 24 (heliocentric ecliptic J2000)
 Element Value Uncertainty (1-sigma)   Units 
e .1527176517405865 4.1187e-08  
a 3.169355592666475 2.1381e-08 au
q 2.685339049023556 1.3208e-07 au
i 1.851052038959307 5.2941e-06 deg
node 156.8654998731265 0.00012663 deg
peri 52.52566017552004 0.00012764 deg
M 96.08683681420688 1.7159e-05 deg
tp 2458050.432133319773
(2017-Oct-23.93213332)
9.5845e-05 TDB
period 2060.890321405636
5.64
2.0855e-05
5.71e-08
d
yr
n .1746817849842979 1.7676e-09 deg/d
Q 3.653372136309395 2.4646e-08 au
  Orbit Determination Parameters
   # obs. used (total)      1185  
   data-arc span      9452 days (25.88 yr)  
   first obs. used      1994-01-09  
   last obs. used      2019-11-26  
   planetary ephem.      DE431  
   SB-pert. ephem.      SB431-N16  
   condition code      0  
   norm. resid. RMS      .54164  
   source      ORB  
   producer      Otto Matic  
   solution date      2019-Dec-14 04:04:36  

Additional Information
 Earth MOID = 1.68103 au 
 Jupiter MOID = 1.30935 au 
 T_jup = 3.184 
[ show covariance matrix ]

Ephemeris | Orbit Diagram | Orbital Elements | Mission Design | Physical Parameters | Discovery Circumstances | Close-Approach Data ]

Physical Parameter Table
Parameter Symbol Value Units Sigma Reference Notes
absolute magnitude H 13.9   n/a MPO267865  
diameter diameter 6.499 km 0.338 urn:nasa:pds:neowise_diameters_albedos::2.0[mainbelt] (http://adsabs.harvard.edu/abs/2011ApJ...741...68M)  
geometric albedo albedo 0.152   0.021 urn:nasa:pds:neowise_diameters_albedos::2.0[mainbelt] (http://adsabs.harvard.edu/abs/2011ApJ...741...68M)  

47639 (2000 CT29)          Discovered 2000-Feb-02 by LINEAR at Socorro
Reference: 20020921/Numbers.arcLast Updated: 2004-04-19

[ show close-approach data ]
Alternate Designations
 2000 CT29 = 1998 WA1 
Ephemeris | Orbit Diagram | Orbital Elements | Mission Design | Physical Parameters | Discovery Circumstances | Close-Approach Data ]
ABOUT SSD CREDITS/AWARDS PRIVACY/COPYRIGHT GLOSSARY LINKS
FirstGov 2020-Jan-19 02:58 UT
(server date/time)  
NASA Home Page
Site Manager:   Ryan S. Park
Webmaster  Alan B. Chamberlin